Wind_Speed
4 5 5 6 7 8 8 8 8 9 10 11 12 13 14 14 15 16 16 17 17 18 18 18 19 19 20 20 20 20 20 20 20 20 20 20 19 19 18 17 16 15 14 13
5 6 6 7 8 9 9 10 10 11 12 14 15 15 16 17 17 17 18 19 19 20 20 21 21 21 22 22 22 22 22 22 23 23 22 22 22 21 20 19 18 17 16 15
6 8 9 9 10 11 11 12 13 14 15 16 17 18 19 19 20 19 20 21 22 22 23 23 23 24 24 24 24 25 25 25 25 25 25 25 24 24 23 22 21 20 19 17
8 10 10 11 12 12 13 14 14 16 17 18 19 20 21 22 22 23 23 23 24 25 25 26 26 26 26 27 27 27 27 27 27 27 27 27 27 26 26 24 23 22 21 20
10 12 12 14 14 14 15 16 17 18 19 21 22 23 24 24 25 26 26 26 27 27 28 28 29 29 29 30 30 30 30 30 30 30 30 30 29 28 28 27 26 25 24 23
13 15 15 16 17 17 18 18 20 21 22 24 25 26 26 28 28 29 30 31 31 31 31 31 32 32 32 32 33 33 33 33 33 32 32 32 32 31 30 30 29 28 26 25
17 18 19 19 20 21 22 22 24 24 25 27 28 29 30 31 32 33 34 34 34 35 36 36 36 36 36 36 36 36 36 36 35 35 35 34 34 34 33 32 31 31 29 28
20 21 22 23 23 24 25 27 27 28 30 31 32 33 34 35 36 37 38 39 39 39 40 40 40 40 40 40 40 39 39 39 39 38 38 37 36 36 35 35 34 33 32 30
23 24 25 26 26 27 28 30 31 32 33 35 36 37 38 39 40 41 42 43 43 43 43 44 44 44 43 43 43 42 42 42 42 41 40 39 38 37 37 37 36 35 34 33
27 27 28 29 29 31 32 33 34 35 37 38 40 41 43 43 44 45 46 47 48 48 47 47 47 46 46 46 45 45 45 44 44 43 42 41 40 40 39 38 38 37 36 35
29 30 31 32 33 34 35 36 38 39 41 42 43 45 46 47 48 48 49 50 50 51 50 49 49 48 48 48 48 47 46 46 45 45 45 44 42 41 41 40 40 39 38 37
32 33 34 35 36 37 39 40 41 43 44 45 47 48 49 50 50 50 50 51 51 51 52 51 50 49 49 49 49 48 47 47 47 47 47 47 46 44 44 43 42 42 40 39
36 37 37 38 39 41 42 44 45 47 48 48 49 50 51 51 51 51 52 52 52 52 52 52 51 50 50 50 50 49 48 48 48 48 49 49 48 47 46 45 44 43 42 41
39 40 40 41 43 44 45 47 48 49 50 51 52 52 53 53 53 53 54 54 54 54 53 52 51 50 50 50 50 50 50 50 49 49 49 50 50 48 47 46 45 45 44 43
42 43 43 44 45 46 48 49 50 51 52 53 54 54 54 55 55 55 55 55 55 54 54 53 52 51 50 50 50 50 50 50 50 50 49 49 50 49 48 47 47 46 46 45
44 45 46 47 48 49 50 51 52 53 54 54 55 55 56 57 58 58 57 56 56 55 54 53 52 51 51 50 50 50 49 49 50 49 48 47 48 49 49 49 48 47 47 47
46 47 48 49 50 51 52 53 54 55 56 56 57 58 58 58 58 58 57 57 56 55 54 53 52 51 51 50 50 49 49 48 48 48 47 47 47 48 50 50 49 49 49 49
49 50 51 52 53 53 54 55 56 57 58 58 58 58 58 58 58 58 57 56 55 54 53 53 53 52 51 50 49 48 48 47 46 46 46 46 47 48 49 50 49 49 50 51
51 52 52 53 54 55 56 56 57 58 58 59 59 59 59 59 59 58 57 56 55 54 52 52 52 51 50 49 49 48 46 46 46 45 46 46 47 48 49 50 50 50 51 52
53 53 54 55 56 57 58 58 59 59 59 60 60 60 60 59 59 58 56 55 55 55 53 51 50 50 49 48 48 47 46 45 45 45 45 46 47 48 49 50 50 50 52 53
55 55 56 57 58 58 59 59 60 60 60 61 61 60 59 58 58 57 56 55 53 53 52 51 50 50 49 48 46 46 45 45 45 44 44 44 45 46 48 49 50 49 50 52
57 57 58 59 59 59 60 60 61 61 61 60 60 59 58 58 57 56 55 54 53 52 51 50 49 48 47 47 45 45 44 43 43 43 42 43 43 44 45 47 47 47 48 49
59 59 60 60 61 61 60 61 61 61 60 60 59 58 58 56 56 55 53 52 52 51 50 49 48 46 45 45 44 42 41 40 40 40 39 40 40 40 41 42 44 45 47 48
60 60 61 61 61 61 61 60 60 60 59 58 57 56 55 54 53 53 52 51 50 49 48 47 45 44 43 42 41 40 39 38 38 37 37 37 36 37 38 39 40 42 44 45
60 61 61 61 60 60 60 59 58 57 56 55 54 53 53 52 52 51 50 49 47 46 45 43 42 42 41 40 39 38 37 36 35 35 34 33 33 34 35 36 37 39 40 42
61 60 60 59 59 58 57 57 56 54 53 52 50 50 50 49 49 48 48 46 44 44 42 41 39 39 39 37 35 34 33 32 31 31 31 30 30 30 32 33 35 37 38 40
59 58 57 56 56 55 54 53 52 51 50 49 47 47 47 47 46 45 45 43 42 41 40 39 38 37 35 34 32 30 28 27 27 27 27 27 27 27 29 30 33 35 36 37
Wind_Direction
19 3 354 345 339 335 330 326 321 315 310 307 305 305 303 303 301 299 298 296 295 294 293 291 290 290 289 287 285 283 282 281 282 283 284 286 287 288 289 291 293 295 300 303
353 342 337 333 328 324 322 319 314 310 307 307 306 304 303 302 302 299 297 299 296 294 294 292 290 289 288 287 285 284 283 281 280 280 281 282 283 284 284 284 286 287 289 293
330 326 322 322 322 319 317 313 308 306 306 305 303 303 303 302 301 300 297 298 298 295 293 291 290 289 288 286 285 283 282 281 279 279 279 279 279 280 280 280 280 281 282 284
323 320 318 317 317 316 313 310 308 306 306 304 304 305 304 303 300 299 298 297 297 295 294 292 291 290 288 287 285 283 282 281 279 278 277 276 276 276 277 276 276 276 276 277
318 317 317 317 315 311 309 307 307 306 306 305 304 305 304 303 301 300 299 298 297 296 294 292 291 290 288 286 285 283 282 280 279 277 276 275 274 273 273 273 273 273 272 272
312 312 313 313 311 309 306 304 306 306 306 305 303 302 303 302 301 300 300 299 298 296 294 292 290 288 287 286 284 283 281 280 278 277 276 275 273 272 271 271 270 269 269 269
308 308 309 311 309 307 305 305 304 305 305 305 303 302 301 300 299 298 297 297 296 295 293 292 290 289 287 285 283 282 280 279 278 276 275 274 272 270 268 268 267 267 266 266
302 304 305 306 306 305 304 304 303 303 302 302 302 301 300 299 298 298 296 295 295 294 292 291 290 289 287 284 283 281 280 278 277 275 274 272 270 268 267 265 264 264 264 264
300 301 303 304 304 303 303 303 303 302 301 301 301 300 299 298 297 297 296 295 294 294 292 291 290 289 287 284 283 281 280 278 276 274 272 270 268 266 265 263 262 262 262 262
297 299 300 301 302 302 302 302 301 301 300 300 300 299 299 299 297 296 295 295 294 294 292 291 290 289 287 285 283 281 279 277 275 272 270 269 267 265 263 262 260 260 260 260
295 297 297 299 300 300 300 301 300 300 300 299 299 298 298 297 297 296 296 295 295 294 293 292 291 289 287 286 284 280 278 276 274 272 269 267 265 263 261 260 259 258 257 257
294 295 297 299 299 299 300 301 301 300 300 299 299 298 298 297 297 297 296 296 295 294 294 293 292 290 288 286 283 280 277 275 273 270 268 266 263 261 260 259 258 257 255 254
294 295 297 298 298 299 300 300 301 301 301 300 300 299 299 299 298 297 297 296 296 295 295 294 292 290 288 286 284 281 279 276 273 270 267 265 263 260 258 257 256 255 254 253
294 296 297 298 299 300 301 301 302 302 302 301 301 300 300 299 299 299 298 297 296 296 296 294 292 291 289 287 285 282 280 277 274 271 268 264 262 259 256 254 253 252 251 250
294 295 297 298 299 300 301 302 302 302 302 302 301 301 300 300 300 300 298 298 297 296 296 294 293 291 289 287 285 282 279 277 274 271 268 265 260 257 255 253 250 249 248 247
293 295 296 297 298 300 301 302 301 301 301 301 301 301 300 300 300 299 298 298 297 296 295 294 293 291 290 287 285 282 279 277 274 271 269 265 261 256 254 252 250 247 246 245
293 294 295 297 298 299 300 301 301 301 301 301 301 301 301 300 300 299 299 298 297 296 295 294 293 292 290 288 286 282 280 277 274 271 268 265 261 256 253 251 249 246 245 243
292 294 295 296 298 299 300 300 301 301 301 302 301 302 301 301 300 300 299 298 297 297 296 295 294 292 290 289 286 283 280 276 273 270 267 264 261 257 253 250 248 246 244 242
292 294 295 296 297 298 300 301 301 301 301 301 302 302 302 301 300 300 299 298 298 297 296 295 294 293 292 290 287 283 280 276 273 270 267 263 260 257 253 250 248 246 243 241
292 293 294 295 297 298 299 300 301 301 301 301 302 302 301 300 299 299 299 299 298 298 297 296 295 293 292 291 287 284 280 276 273 271 267 264 261 258 254 250 248 246 244 241
291 292 293 295 296 298 299 299 300 300 301 301 301 301 301 300 299 298 298 298 298 298 297 297 296 295 293 291 289 286 282 277 273 271 268 265 262 259 254 250 247 245 243 241
291 292 293 294 296 297 298 299 299 300 301 300 300 300 300 299 298 298 299 299 298 298 298 297 296 294 293 292 290 288 284 278 274 271 269 266 263 260 255 250 246 244 242 239
291 292 293 294 296 297 297 298 299 299 300 299 299 299 299 298 299 299 298 298 298 298 298 298 297 295 294 292 291 289 285 280 276 272 270 267 264 260 255 250 245 243 240 238
290 291 293 294 295 296 296 297 298 298 299 299 298 298 298 298 298 299 299 299 299 298 298 298 298 296 294 293 292 290 287 283 278 274 270 267 263 258 253 249 245 241 239 237
289 290 292 293 294 295 296 296 297 297 298 298 297 297 297 298 298 299 299 299 299 298 299 298 298 297 296 295 294 292 288 285 280 276 271 266 261 257 251 246 243 240 237 235
288 290 291 292 293 294 295 295 296 297 297 296 296 296 297 298 299 300 301 301 300 299 299 298 297 298 298 297 295 294 290 286 282 277 272 266 259 254 248 243 239 236 234 233
287 288 289 290 291 292 293 294 295 296 297 297 297 296 297 298 300 301 301 301 300 299 299 298 297 298 298 297 297 297 293 287 282 277 272 266 258 250 245 240 237 233 232 232
Height
5832 5831 5830 5830 5829 5828 5828 5827 5826 5825 5824 5823 5822 5821 5820 5818 5817 5815 5814 5813 5811 5810 5809 5807 5806 5804 5803 5802 5801 5800 5798 5797 5796 5795 5794 5793 5792 5790 5789 5788 5786 5784 5783 5781
5830 5830 5829 5828 5827 5826 5825 5824 5823 5822 5821 5819 5818 5817 5815 5814 5812 5811 5810 5808 5807 5805 5804 5802 5801 5800 5798 5797 5795 5794 5793 5792 5791 5790 5789 5788 5787 5785 5784 5783 5782 5781 5779 5778
5829 5828 5827 5826 5825 5824 5822 5821 5820 5818 5818 5815 5813 5812 5810 5809 5807 5806 5805 5803 5802 5800 5799 5797 5796 5794 5793 5791 5790 5788 5787 5786 5784 5783 5783 5782 5781 5780 5779 5778 5777 5776 5775 5773
5827 5826 5825 5826 5822 5821 5819 5817 5816 5814 5812 5810 5809 5807 5805 5803 5802 5800 5798 5797 5795 5794 5792 5790 5789 5787 5786 5784 5783 5781 5780 5779 5778 5776 5776 5775 5774 5773 5772 5771 5771 5770 5769 5768
5824 5823 5822 5821 5819 5817 5815 5813 5812 5810 5808 5805 5804 5802 5800 5797 5795 5794 5792 5790 5788 5787 5785 5783 5781 5780 5778 5776 5775 5773 5772 5770 5769 5768 5767 5767 5766 5765 5765 5764 5764 5763 5763 5762
5820 5819 5818 5818 5815 5812 5811 5809 5807 5804 5802 5800 5798 5796 5794 5791 5788 5786 5784 5782 5780 5778 5776 5775 5773 5771 5769 5767 5765 5764 5762 5761 5760 5759 5758 5758 5757 5756 5756 5756 5756 5755 5755 5755
5815 5814 5813 5812 5810 5808 5807 5805 5801 5799 5796 5794 5791 5789 5787 5784 5781 5779 5776 5774 5771 5769 5767 5764 5762 5761 5759 5757 5755 5753 5752 5750 5749 5748 5748 5747 5747 5746 5746 5746 5746 5747 5747 5747
5810 5809 5810 5806 5803 5802 5800 5796 5794 5792 5789 5786 5784 5781 5778 5775 5772 5769 5767 5764 5761 5758 5756 5753 5751 5749 5747 5744 5743 5741 5740 5739 5738 5737 5736 5736 5735 5735 5735 5736 5736 5737 5737 5738
5805 5805 5801 5799 5796 5794 5791 5789 5786 5783 5781 5778 5775 5771 5768 5765 5762 5759 5755 5752 5749 5746 5743 5740 5738 5735 5733 5731 5729 5728 5726 5725 5724 5723 5723 5723 5723 5723 5724 5724 5725 5726 5727 5728
5797 5796 5793 5791 5788 5786 5783 5780 5777 5774 5771 5768 5765 5761 5757 5754 5750 5746 5743 5739 5736 5732 5729 5727 5724 5721 5718 5716 5715 5713 5712 5711 5710 5709 5709 5709 5709 5710 5711 5712 5713 5714 5716 5717
5789 5788 5785 5783 5780 5777 5775 5771 5768 5765 5761 5757 5753 5750 5746 5742 5737 5733 5729 5725 5721 5717 5714 5711 5708 5705 5702 5700 5698 5697 5696 5694 5694 5694 5694 5694 5695 5696 5697 5699 5700 5702 5704 5705
5781 5779 5776 5774 5771 5768 5764 5761 5757 5754 5750 5745 5741 5737 5732 5728 5723 5719 5715 5710 5706 5702 5699 5696 5693 5689 5686 5683 5681 5679 5678 5678 5677 5677 5677 5678 5680 5681 5682 5684 5686 5688 5690 5693
5770 5768 5766 5763 5760 5756 5753 5749 5745 5741 5737 5733 5728 5723 5718 5713 5709 5704 5700 5695 5691 5687 5683 5680 5676 5673 5669 5666 5663 5662 5661 5660 5660 5660 5660 5661 5662 5664 5667 5669 5671 5674 5676 5679
5759 5757 5754 5751 5748 5744 5740 5737 5732 5728 5723 5718 5713 5709 5704 5699 5694 5689 5685 5680 5675 5671 5667 5663 5659 5656 5652 5648 5646 5644 5643 5642 5641 5642 5642 5643 5644 5647 5649 5652 5656 5659 5662 5665
5748 5745 5742 5739 5735 5731 5727 5723 5719 5714 5709 5704 5699 5694 5689 5684 5679 5674 5669 5664 5659 5654 5650 5645 5641 5638 5634 5631 5628 5627 5625 5624 5623 5623 5624 5625 5626 5629 5632 5635 5639 5643 5647 5651
5735 5732 5729 5726 5722 5718 5714 5710 5705 5700 5695 5690 5685 5679 5674 5669 5663 5658 5653 5647 5642 5637 5632 5628 5624 5620 5617 5613 5611 5609 5607 5606 5605 5605 5606 5607 5609 5611 5614 5618 5622 5626 5631 5636
5723 5719 5716 5712 5709 5705 5700 5695 5690 5685 5680 5675 5669 5664 5658 5653 5647 5642 5636 5631 5625 5620 5615 5610 5606 5603 5600 5596 5593 5591 5590 5589 5588 5588 5588 5590 5592 5594 5597 5601 5605 5610 5615 5619
5708 5705 5702 5698 5694 5690 5686 5681 5675 5670 5664 5659 5653 5648 5642 5636 5630 5625 5619 5614 5609 5604 5599 5593 5589 5586 5583 5579 5576 5574 5572 5571 5571 5570 5571 5573 5575 5577 5580 5584 5588 5593 5598 5603
5694 5691 5687 5683 5679 5675 5670 5665 5660 5654 5649 5643 5637 5631 5626 5620 5614 5608 5603 5598 5592 5588 5583 5578 5573 5569 5565 5562 5559 5556 5555 5554 5553 5553 5554 5555 5557 5560 5563 5567 5571 5576 5580 5586
5679 5676 5672 5668 5664 5659 5654 5649 5644 5638 5633 5626 5621 5615 5609 5604 5598 5592 5587 5582 5576 5570 5566 5562 5557 5553 5550 5546 5542 5540 5538 5536 5536 5536 5536 5537 5539 5542 5545 5549 5554 5558 5563 5570
5663 5660 5656 5652 5648 5643 5638 5632 5627 5622 5617 5610 5604 5598 5593 5588 5582 5576 5571 5566 5562 5555 5551 5546 5542 5538 5534 5530 5527 5524 5521 5520 5519 5519 5520 5521 5522 5524 5527 5531 5536 5541 5547 5553
5646 5643 5639 5635 5631 5627 5622 5616 5610 5605 5600 5594 5588 5582 5577 5572 5566 5561 5556 5550 5545 5541 5536 5531 5527 5522 5518 5514 5511 5508 5506 5504 5503 5503 5503 5504 5505 5507 5510 5514 5519 5524 5530 5536
5629 5626 5622 5618 5614 5610 5605 5600 5594 5588 5583 5578 5572 5566 5561 5555 5550 5545 5541 5536 5530 5526 5521 5516 5511 5507 5503 5500 5496 5493 5491 5489 5488 5488 5488 5489 5490 5491 5494 5498 5503 5508 5514 5520
5612 5608 5605 5601 5596 5592 5588 5583 5578 5572 5567 5562 5556 5550 5545 5540 5536 5531 5525 5521 5516 5511 5506 5502 5498 5493 5489 5486 5483 5480 5478 5476 5474 5474 5474 5475 5476 5478 5480 5484 5488 5493 5499 5506
5594 5591 5587 5583 5579 5575 5571 5566 5562 5557 5551 5546 5541 5536 5530 5525 5521 5517 5512 5507 5502 5497 5493 5489 5485 5481 5477 5474 5470 5468 5465 5463 5461 5461 5460 5461 5463 5465 5468 5472 5476 5481 5486 5492
5577 5574 5570 5566 5562 5558 5554 5549 5545 5541 5536 5532 5527 5522 5517 5512 5507 5503 5499 5494 5489 5485 5481 5477 5473 5470 5466 5462 5459 5456 5453 5451 5450 5449 5449 5450 5452 5454 5457 5460 5464 5469 5474 5480
5559 5556 5553 5550 5546 5541 5537 5534 5530 5526 5521 5517 5513 5509 5505 5500 5495 5491 5486 5482 5478 5474 5470 5466 5462 5459 5456 5453 5449 5447 5444 5442 5441 5440 5440 5441 5442 5444 5447 5450 5454 5459 5464 5469